Meteo Giornale » Osservazioni meteo Russia » Yaroslavl Tunoshna
ore: 13:30 - Osservazioni Meteo Yaroslavl Tunoshna
Lat. 57° 34' N Lon. 40° 9' E Alt. 88 metri s.l.m.
23 °C
Sereno
Temp. 24 Ore
12 °C
23 °C
Sud-Ovest
14.4 Km/h
Dew point 16 °C
Umidità 64 %
Visibilità 10 Km
Il sole sorge alle ore 05:20
Il sole tramonta alle ore 19:18
| Data e Ora | Cielo e Fenomeni | T °C | DP °C | Um. % | Pres. hPa | Vis. km | Vento km/h | |
|---|---|---|---|---|---|---|---|---|
| Oggi h: 13:30 | Sereno | 23 | 16 | 64 | 1015 | 10 | SO 14.4 | |
| Oggi h: 13:00 | Sereno | 23 | 15 | 60 | 1015 | 10 | S/SO 10.8 | |
| Oggi h: 12:30 | Sereno | 22 | 15 | 64 | 1015 | 10 | S 14.4 | |
| Oggi h: 12:00 | Sereno | 22 | 15 | 64 | 1015 | 10 | S/SO 10.8 | |
| Oggi h: 11:30 | Sereno | 22 | 15 | 64 | 1015 | 10 | S 10.8 | |
| Oggi h: 11:00 | Sereno | 21 | 16 | 73 | 1016 | 10 | SO 14.4 | |
| Oggi h: 10:30 | Sereno | 21 | 16 | 73 | 1016 | 10 | S/SO 10.8 | |
| Oggi h: 10:00 | Sereno | 20 | 15 | 72 | 1016 | 10 | SO 14.4 | |
| Oggi h: 09:30 | Sereno | 20 | 15 | 72 | 1016 | 10 | S 10.8 | |
| Oggi h: 09:00 | Sereno | 19 | 15 | 77 | 1016 | 10 | SO 10.8 | |
| Oggi h: 08:30 | Sereno | 17 | 14 | 82 | 1016 | 10 | N 7.2 | |
| Oggi h: 08:00 | Sereno | 16 | 14 | 87 | 1016 | 10 | N 7.2 | |
| Oggi h: 07:30 | Sereno | 15 | 13 | 87 | 1016 | 10 | N 7.2 | |
| Oggi h: 07:00 | Sereno | 14 | 13 | 93 | 1016 | 10 | N 7.2 | |
| Oggi h: 06:30 | Sereno | 13 | 12 | 93 | 1016 | 10 | N 3.6 | |
| Oggi h: 06:00 | Nebbia | 12 | 12 | 100 | 1016 | 10 | N 7.2 | |
| Oggi h: 05:30 | Nebbia a tratti | 12 | 12 | 100 | 1016 | 0.5 | N 3.6 | |
| Oggi h: 05:15 | Nebbia a tratti | 12 | 12 | 100 | 1016 | 0.5 | N 3.6 | |
| Oggi h: 05:00 | Nebbia | 12 | 11 | 93 | 1016 | 10 | N 3.6 | |
| Oggi h: 04:30 | Sereno | 12 | 12 | 100 | 1016 | 10 | N 3.6 | |
| Oggi h: 04:00 | Sereno | 13 | 12 | 93 | 1016 | 10 | N 3.6 | |
| Oggi h: 03:30 | Sereno | 13 | 12 | 93 | 1016 | 10 | N 7.2 | |
| Oggi h: 03:00 | Sereno | 13 | 12 | 93 | 1017 | 10 | N 3.6 | |
| Oggi h: 02:30 | Sereno | 13 | 13 | 100 | 1017 | 10 | N 3.6 | |
| Oggi h: 02:00 | Sereno | 13 | 12 | 93 | 1017 | 10 | N 7.2 | |
| Oggi h: 01:30 | Sereno | 14 | 13 | 93 | 1017 | 10 | N 3.6 | |
| Oggi h: 01:00 | Sereno | 15 | 14 | 93 | 1017 | 10 | N 7.2 | |
| Oggi h: 00:30 | Nuvoloso | 16 | 14 | 87 | 1017 | 10 | N 7.2 | |
| Oggi h: 00:00 | Nuvoloso | 15 | 14 | 93 | 1016 | 10 | N 7.2 | |
| Ieri h: 23:30 | Nuvoloso | 15 | 15 | 100 | 1016 | 10 | N 7.2 | |
| Ieri h: 23:00 | Nuvoloso | 14 | 14 | 100 | 1016 | 10 | N 0 | |
| Ieri h: 22:30 | Poco Nuvoloso | 14 | 13 | 93 | 1016 | 10 | N 3.6 | |
| Ieri h: 22:00 | Nuvoloso | 15 | 14 | 93 | 1016 | 10 | N 0 | |
| Ieri h: 21:30 | Foschia | 15 | 14 | 93 | 1016 | 5 | N 0 | |
| Ieri h: 21:00 | Poco Nuvoloso | 15 | 15 | 100 | 1016 | 10 | N 3.6 | |
| Ieri h: 20:30 | Nuvoloso | 16 | 15 | 93 | 1016 | 10 | N 0 | |
| Ieri h: 20:00 | Nuvoloso | 17 | 15 | 88 | 1016 | 10 | N 3.6 | |
| Ieri h: 19:30 | Molto Nuvoloso | 18 | 16 | 88 | 1016 | 10 | N 7.2 | |
| Ieri h: 19:00 | Molto Nuvoloso | 19 | 15 | 77 | 1016 | 10 | N 7.2 | |
| Ieri h: 18:30 | Molto Nuvoloso | 20 | 15 | 72 | 1016 | 10 | N 3.6 | |
| Ieri h: 18:00 | Molto Nuvoloso | 19 | 15 | 77 | 1016 | 10 | N 10.8 | |
| Ieri h: 17:30 | Molto Nuvoloso | 21 | 15 | 68 | 1016 | 10 | N 7.2 | |
| Ieri h: 17:00 | Molto Nuvoloso | 21 | 14 | 64 | 1016 | 10 | N 7.2 | |
| Ieri h: 16:30 | Nuvoloso | 22 | 14 | 60 | 1016 | 10 | O/SO 10.8 | |
| Ieri h: 16:00 | Nuvoloso | 21 | 14 | 64 | 1016 | 10 | O 10.8 | |
| Ieri h: 15:30 | Nuvoloso | 21 | 14 | 64 | 1016 | 10 | O 10.8 | |
| Ieri h: 15:00 | Molto Nuvoloso | 21 | 13 | 60 | 1016 | 10 | O 10.8 | |
| Ieri h: 14:30 | Molto Nuvoloso | 22 | 15 | 64 | 1016 | 10 | O 10.8 | |
| Ieri h: 14:00 | Molto Nuvoloso | 20 | 14 | 68 | 1016 | 10 | O 10.8 | |



